This is the latest recevied weather packets stored in our database for station/object EA2AFZ-W. If no packets are shown the sender has not sent any weather packets the latest 10 day(s).
| Time | Temp. | Humidity | Pressure | Rain* | Wind** | Luminosity | Snow |
|---|---|---|---|---|---|---|---|
| 1777286719 | 16.11° C | 69% | 1019 hPa | 0 mm | - | - | - |
| 1777284916 | 16.67° C | 69% | 1019 hPa | 0 mm | - | - | - |
| 1777283114 | 18.33° C | 69% | 1020 hPa | 0 mm | - | - | - |
| 1777281312 | 18.33° C | 72% | 1020 hPa | 0 mm | - | - | - |
| 1777279509 | 15.56° C | 73% | 1020 hPa | 0 mm | - | - | - |
| 1777277767 | 15.56° C | 63% | 1019 hPa | 0 mm | - | - | - |
| 1777275964 | 16.11° C | 69% | 1020 hPa | 0 mm | - | - | - |
| 1777274162 | 14.44° C | 73% | 1019 hPa | 0 mm | - | - | - |
| 1777272359 | 14.44° C | 77% | 1020 hPa | 0 mm | - | - | - |
| 1777270555 | 14.44° C | 88% | 1019 hPa | 0 mm | - | - | - |
| 1777268753 | 14.44° C | 88% | 1020 hPa | 0 mm | - | - | - |
| 1777266951 | 15.56° C | 82% | 1019 hPa | 0 mm | - | - | - |
| 1777265148 | 15.56° C | 77% | 1020 hPa | 0 mm | - | - | - |
| 1777263345 | 15.56° C | 77% | 1019 hPa | 0 mm | - | - | - |
| 1777261543 | 15.56° C | 82% | 1020 hPa | 0 mm | - | - | - |
| 1777259740 | 15.56° C | 77% | 1019 hPa | 0 mm | - | - | - |
| 1777257937 | 15.56° C | 82% | 1020 hPa | 0 mm | - | - | - |
| 1777256135 | 15.56° C | 77% | 1019 hPa | 0 mm | - | - | - |
| 1777254332 | 15.56° C | 77% | 1020 hPa | 0 mm | - | - | - |
| 1777252529 | 15.56° C | 82% | 1020 hPa | 0 mm | - | - | - |
| 1777250727 | 15.56° C | 82% | 1020 hPa | 0 mm | - | - | - |
| 1777248924 | 15.56° C | 82% | 1020 hPa | 0 mm | - | - | - |
| 1777247122 | 15° C | 72% | 1020 hPa | 0 mm | - | - | - |
| 1777245319 | 15° C | 66% | 1020 hPa | 0 mm | - | - | - |
| 1777243516 | 15° C | 67% | 1021 hPa | 0 mm | - | - | - |
* Rain latest hour (hover to see other rain measurements)
** Current wind speed in m/s (hover to see current wind gust speed)